{"data":{"norad_id":55760,"epoch":"2026-09-20T22:00:03.000096Z","epoch_age_seconds":67064,"freshness":"FRESH","line1":"1 55760U 23028V   26263.91670139  .00088056  00000+0  67049-2 0  9997","line2":"2 55760  70.0002 112.0004 0002403 280.2555 267.7253 15.01571664  5764","mean_motion":15.01571664,"eccentricity":0.0002403,"inclination_deg":70.0002,"raan_deg":112.0004,"arg_perigee_deg":280.2555,"mean_anomaly_deg":267.7253,"bstar":0.0067049,"rev_number":576,"period_min":95.899518785805,"perigee_km":560.38162459142,"apogee_km":563.71707815188,"semimajor_km":6940.1863513716,"source":"CELESTRAK","updated_at":"2026-09-21T09:00:33.314873Z"}}